[[{"header":{"parameterUnit":"m.s-1","parameterCategory":1,"la1":30.2991,"la2":30.254,"lo1":-89.0895,"lo2":-89.0444,"dy":0.0017,"dx":0.0017,"nx":28,"ny":28,"refTime":"2025-06-08T21:00:00:Z","depth":0,"parameterNumber":2,"parameterNumberName":"U-component_of_WINDS"},"data":[0,0,0,0,0,0,0,0,0,0,0,0,0,0,0,0,0,0,0,0,0,0,0,0,0,0,0,0,0,0,0,0,0,0,0,0,0,0,0,0,0,0,0,0,0,0,0,0,0,0,0,0,0,0,0,0,0,0,3.783,3.7831,0,3.7926,3.7927,3.7928,3.7927,3.7926,3.7925,3.7924,3.8023,3.8026,3.803,0,0,0,0,0,0,0,0,0,0,0,0,0,3.7644,3.7648,3.783,3.7831,3.7832,3.7926,3.7927,3.7929,3.7928,3.7926,3.7925,3.7923,3.8021,3.8026,3.8031,0,0,0,0,0,0,0,0,0,0,0,0,0,3.7731,3.7649,3.783,3.7843,3.7845,3.7926,3.7927,3.7929,3.7928,3.7926,3.7924,3.7922,3.802,3.8026,3.8031,3.8105,0,0,3.8049,3.8051,0,0,0,0,0,0,0,0,3.7726,3.7738,3.784,3.7842,3.7845,3.7913,3.7898,3.7988,3.7928,3.7897,3.7924,3.7921,3.7988,3.7996,3.8018,3.811,3.8114,3.8049,3.8053,3.8055,3.8057,0,0,0,0,0,0,0,3.772,3.7734,3.7868,3.7841,3.7845,3.7844,3.7854,3.7915,3.7952,3.7899,3.7899,3.7911,3.7989,3.8013,3.8021,3.8115,3.8049,3.8054,3.8058,3.806,3.8269,3.8271,0,0,0,0,0,0,3.7712,3.7729,3.7865,3.7871,3.778,3.7849,3.786,3.7893,3.7951,3.7958,3.7912,3.791,3.8004,3.8014,3.8024,3.8112,3.8055,3.8061,3.8064,3.8267,3.827,3.8272,0,0,0,0,0,0,3.7708,3.7724,3.7861,3.78,3.7817,3.7854,3.7891,3.7896,3.792,3.7961,3.7967,3.793,3.8003,3.8016,3.8084,3.8116,3.8063,3.8068,3.8265,3.8268,3.8271,3.8291,0,0,0,0,0,0,3.7702,3.7722,3.7751,3.7801,3.7821,3.792,3.7893,3.7899,3.793,3.7928,3.7979,3.7986,3.8002,3.8076,3.809,3.8123,3.8073,3.8262,3.8266,3.827,3.8287,3.8294,3.83,0,0,0,0,0,3.7696,3.7754,3.7753,3.7769,3.7858,3.7922,3.7933,3.7951,3.7932,3.7961,3.7987,3.7984,3.811,3.8083,3.8099,3.8134,3.826,3.8265,3.827,3.8284,3.8293,3.83,0,0,0,0,0,0,3.7707,3.776,3.776,3.7836,3.7874,3.7922,3.7959,3.7959,3.8004,3.8001,3.802,3.8032,3.81,3.8124,3.8092,3.8207,3.8183,3.8191,3.8189,3.8197,3.8203,3.8195,3.8078,0,0,0,0,0,3.7719,3.7767,3.781,3.7873,3.7892,3.7922,3.7951,3.7961,3.8001,3.8018,3.8049,3.8089,3.8137,3.8168,3.8215,3.8291,3.8301,3.8323,3.8329,3.8334,3.834,3.838,3.8389,3.8288,3.8288,3.8287,0,0,3.7743,3.7778,3.7807,3.7876,3.7907,3.7956,3.7936,3.7989,3.8025,3.8026,3.8092,3.8116,3.8161,3.8233,3.8266,3.8255,3.8371,3.834,3.8344,3.8348,3.8386,3.8395,3.8404,3.8291,3.829,3.829,0,0,3.7811,3.7843,3.7897,3.7929,3.7975,3.7995,3.8007,3.8055,3.807,3.8137,3.8138,3.8181,3.8264,3.8296,3.8323,3.8401,3.8399,3.8415,3.8448,3.8486,3.8494,3.8501,3.8527,3.8536,3.8422,3.8422,3.8422,0,3.7835,3.7909,3.7926,3.7978,3.8007,3.801,3.8065,3.8094,3.8154,3.8174,3.8161,3.8264,3.8295,3.8373,3.8391,3.8414,3.8428,3.8409,3.8492,3.8499,3.8506,3.8531,3.8541,3.8424,3.8423,3.8423,3.8423,0,3.7935,3.7985,3.8024,3.808,3.8114,3.8168,3.8192,3.8224,3.8231,3.8251,3.8317,3.8354,3.8407,3.8427,3.8434,3.8505,3.8496,3.8487,3.8463,3.8517,3.854,3.855,3.8426,3.8425,3.8425,3.8424,0,0,3.8014,3.8078,3.8091,3.8116,3.8167,3.8206,3.8259,3.831,3.8337,3.8378,3.8421,3.8491,3.8482,3.8512,3.8523,3.8557,3.8614,3.8543,3.8545,3.8554,3.8692,3.8697,3.8708,3.8613,3.8615,3.8617,3.8687,0,3.8086,3.8179,3.8195,3.8277,3.8322,3.8325,3.837,3.8406,3.8426,3.8468,3.849,3.8538,3.8523,3.8541,3.8575,3.86,3.8641,3.8595,3.8653,3.8655,3.864,3.8721,3.8727,3.8792,3.8697,3.8698,3.87,0,3.8183,3.8225,3.8311,3.8353,3.8373,3.8414,3.8461,3.8501,3.8541,3.8553,3.8586,3.8592,3.8646,3.862,3.8693,3.8661,3.8686,3.8701,3.8704,3.8709,3.8679,3.8726,3.8813,3.8822,3.8715,3.8713,3.8712,0,3.823,3.8308,3.8369,3.839,3.8442,3.847,3.8493,3.8531,3.856,3.8601,3.862,3.8667,3.8693,3.8729,3.8747,3.8727,3.8819,3.8795,3.8829,3.8828,3.8848,3.8846,3.8938,3.8866,3.8866,3.8866,3.8865,0,3.8308,3.836,3.839,3.8427,3.8485,3.8502,3.8558,3.8581,3.8614,3.8655,3.8661,3.8699,3.8721,3.8763,3.8777,3.8835,3.8847,3.8857,3.886,3.8856,3.8854,3.8871,3.8867,3.8868,3.8868,3.8867,3.8867,0,3.837,3.8392,3.8458,3.8501,3.8513,3.8553,3.859,3.8625,3.8645,3.8696,3.8709,3.8739,3.8788,3.881,3.8871,3.888,3.8945,3.8946,3.8931,3.8932,3.8964,3.896,3.9069,3.9084,3.9003,3.9004,3.9005,0,3.8417,3.8457,3.8504,3.8531,3.8555,3.8599,3.8628,3.8647,3.8677,3.8724,3.8754,3.8802,3.8842,3.8919,3.8946,3.8992,3.8993,3.9028,3.9,3.8993,3.8991,3.8988,3.8991,3.9033,3.9033,3.9034,3.9035,0,3.8499,3.8508,3.855,3.8595,3.8629,3.8666,3.8702,3.8724,3.8748,3.8781,3.8831,3.8861,3.8922,3.897,3.9017,3.904,3.9041,3.9043,3.9053,3.9049,3.9038,3.9042,3.8943,3.9041,3.904,3.904,3.9039,3.9039,3.8554,3.8589,3.8626,3.8672,3.8701,3.8734,3.8769,3.8792,3.8833,3.8883,3.8891,3.8943,3.898,3.9043,3.9068,3.9108,3.91,3.9115,3.9119,3.9122,3.9122,3.9032,3.9117,3.9117,3.9117,3.9117,3.9117,0,3.8635,3.8659,3.8701,3.875,3.8786,3.8783,3.8822,3.8852,3.8898,3.8932,3.897,3.9026,3.9071,3.9101,3.9147,3.9174,3.9175,3.9185,3.9182,3.9187,3.9128,3.9114,3.9183,3.9183,3.9183,3.9183,3.9183,3.9183,3.8681,3.8738,3.8751,3.8822,3.8845,3.8896,3.8918,3.8948,3.8975,3.9036,3.9074,3.9093,3.9125,3.9173,3.9214,3.9222,3.9238,3.9248,3.9255,3.9199,3.9192,3.9185,3.9172,3.9251,3.9252,3.931,3.9311,3.9311]},{"header":{"parameterUnit":"m.s-1","parameterCategory":1,"la1":30.2991,"la2":30.254,"lo1":-89.0895,"lo2":-89.0444,"dy":0.0017,"dx":0.0017,"nx":28,"ny":28,"refTime":"2025-06-08T21:00:00:Z","depth":0,"parameterNumber":3,"parameterNumberName":"V-component_of_WINDS"},"data":[0,0,0,0,0,0,0,0,0,0,0,0,0,0,0,0,0,0,0,0,0,0,0,0,0,0,0,0,0,0,0,0,0,0,0,0,0,0,0,0,0,0,0,0,0,0,0,0,0,0,0,0,0,0,0,0,0,0,3.4095,3.4095,0,3.4163,3.4164,3.4165,3.4159,3.4158,3.4157,3.4156,3.4223,3.4225,3.4228,0,0,0,0,0,0,0,0,0,0,0,0,0,3.3954,3.3957,3.4094,3.4095,3.4096,3.4163,3.4164,3.4165,3.4159,3.4158,3.4156,3.4155,3.4222,3.4225,3.4228,0,0,0,0,0,0,0,0,0,0,0,0,0,3.4018,3.3957,3.4094,3.4101,3.4103,3.4163,3.4164,3.4165,3.4159,3.4158,3.4156,3.4155,3.4221,3.4225,3.4229,3.4285,0,0,3.4241,3.4243,0,0,0,0,0,0,0,0,3.4014,3.4023,3.4099,3.4101,3.4103,3.4151,3.4139,3.4205,3.416,3.4138,3.4156,3.4154,3.42,3.4206,3.4222,3.4289,3.4291,3.4242,3.4244,3.4246,3.4247,0,0,0,0,0,0,0,3.401,3.402,3.4122,3.4101,3.4102,3.41,3.4107,3.4152,3.4176,3.4139,3.4139,3.4148,3.42,3.4218,3.4223,3.4292,3.4242,3.4245,3.4248,3.4249,3.4408,3.441,0,0,0,0,0,0,3.4004,3.4016,3.4119,3.4124,3.4054,3.4104,3.4112,3.4137,3.4176,3.4181,3.4149,3.4147,3.4212,3.4218,3.4226,3.4294,3.4246,3.425,3.4252,3.4407,3.4409,3.4411,0,0,0,0,0,0,3.4001,3.4014,3.4117,3.407,3.4083,3.4108,3.4136,3.4139,3.4157,3.4183,3.4187,3.4162,3.4211,3.422,3.4271,3.4297,3.4252,3.4255,3.4405,3.4407,3.441,3.4432,0,0,0,0,0,0,3.3997,3.4013,3.4035,3.4071,3.4086,3.4162,3.4138,3.4142,3.4164,3.4163,3.4197,3.4201,3.421,3.4265,3.4275,3.4301,3.4259,3.4402,3.4406,3.4409,3.4429,3.4435,3.4441,0,0,0,0,0,3.3992,3.4038,3.4037,3.4049,3.4115,3.4163,3.4172,3.4182,3.4166,3.4189,3.4206,3.42,3.4292,3.427,3.4281,3.431,3.4401,3.4405,3.4409,3.4427,3.4434,3.444,0,0,0,0,0,0,3.4004,3.4043,3.4042,3.4101,3.4129,3.4162,3.4191,3.419,3.4222,3.4219,3.4229,3.4237,3.4288,3.4304,3.4278,3.4366,3.4344,3.4351,3.4354,3.4361,3.4367,3.4362,3.4262,0,0,0,0,0,3.4014,3.4052,3.4083,3.4132,3.4146,3.4166,3.4188,3.4193,3.4223,3.4234,3.4255,3.4282,3.4317,3.434,3.4374,3.4432,3.4438,3.4456,3.4462,3.4466,3.4472,3.4503,3.4511,3.4424,3.4424,3.4423,0,0,3.4034,3.406,3.4083,3.4135,3.4158,3.4195,3.4176,3.4217,3.4244,3.424,3.429,3.4306,3.4337,3.4391,3.4416,3.4406,3.4497,3.4471,3.4475,3.4478,3.4508,3.4516,3.4523,3.4426,3.4426,3.4425,0,0,3.409,3.4114,3.4157,3.418,3.4215,3.4228,3.4238,3.4272,3.4283,3.4333,3.433,3.4362,3.4423,3.4445,3.4464,3.4528,3.4523,3.4538,3.4567,3.4597,3.4604,3.461,3.4632,3.464,3.4543,3.4543,3.4543,0,3.411,3.4168,3.4179,3.422,3.4243,3.4241,3.4284,3.4306,3.4349,3.4364,3.4352,3.4428,3.4449,3.4508,3.4524,3.454,3.4551,3.4534,3.4603,3.4609,3.4615,3.4636,3.4644,3.4545,3.4545,3.4545,3.4545,0,3.4191,3.423,3.4261,3.4304,3.433,3.4372,3.4388,3.4413,3.4416,3.443,3.448,3.4505,3.4544,3.4558,3.4561,3.4618,3.461,3.46,3.4579,3.4624,3.4644,3.4653,3.4547,3.4547,3.4546,3.4546,0,0,3.4256,3.4305,3.4316,3.4335,3.4373,3.4404,3.4445,3.4484,3.4504,3.4534,3.4568,3.4619,3.461,3.4632,3.4637,3.4664,3.4712,3.465,3.4651,3.466,3.4775,3.4782,3.4791,3.4709,3.4711,3.4712,3.4772,0,3.4315,3.439,3.4401,3.4466,3.4502,3.4501,3.4537,3.4563,3.4577,3.4609,3.4623,3.4659,3.4645,3.4658,3.4684,3.47,3.4735,3.4696,3.474,3.4741,3.4732,3.4802,3.481,3.4865,3.478,3.4781,3.4782,0,3.4394,3.4428,3.4497,3.453,3.4545,3.4577,3.4613,3.4644,3.4674,3.4682,3.4706,3.4708,3.4749,3.4726,3.4782,3.4756,3.4774,3.4784,3.4787,3.4791,3.4765,3.4808,3.4883,3.4892,3.4795,3.4794,3.4793,0,3.4435,3.4496,3.4546,3.4562,3.4602,3.4624,3.4642,3.467,3.4692,3.4723,3.4738,3.4773,3.4792,3.4818,3.4829,3.4811,3.4885,3.4862,3.4892,3.4891,3.4907,3.4906,3.4986,3.4919,3.4919,3.4919,3.4919,0,3.45,3.4542,3.4564,3.4595,3.4641,3.4653,3.4699,3.4715,3.474,3.4772,3.4773,3.4803,3.4816,3.4847,3.4856,3.4901,3.4909,3.4916,3.4918,3.4916,3.4915,3.4928,3.4924,3.4921,3.4921,3.492,3.492,0,3.4552,3.4569,3.4623,3.4656,3.4666,3.4699,3.4726,3.4755,3.4768,3.4809,3.4819,3.484,3.4877,3.4891,3.4936,3.4942,3.4994,3.4992,3.4984,3.4985,3.5013,3.501,3.5105,3.5117,3.5042,3.5043,3.5043,0,3.4593,3.4625,3.4662,3.4685,3.4703,3.4739,3.4762,3.4775,3.4798,3.4834,3.4858,3.4896,3.4926,3.4986,3.5004,3.5038,3.5037,3.5068,3.5042,3.5039,3.5037,3.5035,3.5038,3.5073,3.5073,3.5074,3.5075,0,3.4662,3.4669,3.4703,3.474,3.4768,3.4798,3.4826,3.4844,3.486,3.4887,3.4926,3.4949,3.4996,3.5032,3.5068,3.5084,3.5082,3.5083,3.5091,3.5089,3.5083,3.5087,3.4997,3.508,3.508,3.5079,3.5079,3.5079,3.471,3.4739,3.4769,3.4807,3.483,3.4856,3.4885,3.4902,3.4935,3.4975,3.498,3.5021,3.5049,3.5096,3.5114,3.5145,3.5137,3.5149,3.5153,3.5155,3.5157,3.5079,3.5152,3.5152,3.5152,3.5151,3.5151,0,3.4779,3.4799,3.4834,3.4874,3.4903,3.49,3.4931,3.4955,3.4992,3.5019,3.5049,3.5094,3.5129,3.515,3.5185,3.5207,3.5207,3.5216,3.5214,3.5218,3.5163,3.5152,3.5215,3.5215,3.5215,3.5215,3.5215,3.5215,3.4819,3.4867,3.4877,3.4937,3.4956,3.4997,3.5015,3.5039,3.5061,3.511,3.5141,3.5154,3.5178,3.5215,3.5248,3.5253,3.5265,3.5275,3.5279,3.5228,3.5221,3.5215,3.5205,3.5278,3.5278,3.5331,3.5332,3.5332]}]]